KOGALNICEANU current weather conditions

sailwx.info

Wind from 140 at 9 knots

Air temperature 4.0° C
Visibility: greater than 5.4 NM
Dewpoint 3.0° C

Last reported at 2019-Jan-23 00:00 UTC.
Time now 2019-Jan-23 00:47 UTC

Location: N 44°22' E 028°29'.
View on Google Maps.

See reports from other nearby stations

  
Tides and Currents Weather Stations Pressure Air Temp Water Temp Dewpoint Dewpoint Depression Visibility Wind Speed Wind Dir Waves Ship Positions
date/time (UTC)wind fromknots sea level pressurealtimeterstation pressurevisibilityair tempwater tempwave heightnotes
2019-Jan-23 00:00 140 9 5.4 4.0
2019-Jan-22 23:30 140 8 5.4 4.0
2019-Jan-22 23:00 140 7 5.4 4.0
2019-Jan-22 22:30 140 7 5.4 4.0
2019-Jan-22 22:00 140 6 5.4 4.0
2019-Jan-22 21:30 150 11 5.4 4.0
2019-Jan-22 21:00 150 12 5.4 3.0
2019-Jan-22 20:30 140 13 5.4 3.0
2019-Jan-22 20:00 130 12 5.4 3.0
2019-Jan-22 19:30 130 11 5.4 3.0
2019-Jan-22 19:00 130 9 5.4 3.0
2019-Jan-22 18:30 140 7 5.4 2.0
2019-Jan-22 18:00 130 9 5.4 3.0
2019-Jan-22 17:30 130 8 5.4 2.0
2019-Jan-22 17:00 110 9 5.4 2.0
2019-Jan-22 16:30 130 8 5.4 2.0
2019-Jan-22 16:00 120 8 5.4 2.0
2019-Jan-22 15:30 120 9 5.4 2.0
2019-Jan-22 15:00 110 6 5.4 2.0
2019-Jan-22 14:30 070 8 5.4 1.0
2019-Jan-22 14:00 070 8 5.4-0.0
2019-Jan-22 13:30 060 9 5.4-0.0
2019-Jan-22 13:00 060 11 5.4-0.0
2019-Jan-22 12:30 060 9 5.4-0.0
2019-Jan-22 12:00 060 8 5.4-0.0
2019-Jan-22 11:30 060 8 4.3-0.0
2019-Jan-22 11:00 060 8 4.3-1.0
2019-Jan-22 10:30 060 6 4.3-1.0
2019-Jan-22 10:00 060 7 4.3-1.0
2019-Jan-22 09:30 050 6 4.3-1.0
2019-Jan-22 09:00 050 6 4.3-1.0
2019-Jan-22 08:30 040 6 5.4-1.0
2019-Jan-22 08:00 040 5 5.4-1.0
2019-Jan-22 07:30 030 2 5.4-2.0
2019-Jan-22 07:00 020 2 5.4-2.0
2019-Jan-22 06:30 010 4 5.4-2.0
2019-Jan-22 06:00 020 5 5.4-2.0
2019-Jan-22 05:30 030 5 5.4-2.0
2019-Jan-22 05:00 360 5 5.4-3.0
2019-Jan-22 04:30 360 5 5.4-3.0
2019-Jan-22 04:00 010 6 5.4-3.0
2019-Jan-22 03:30 020 6 5.4-2.0
2019-Jan-22 03:00 030 6 5.4-2.0
2019-Jan-22 02:30 030 6 5.4-2.0
2019-Jan-22 02:00 040 5 5.4-2.0
2019-Jan-22 01:30 040 6 5.4-2.0
2019-Jan-22 01:00 050 6 5.4-2.0
2019-Jan-22 00:30 050 8 5.4-2.0
2019-Jan-22 00:00 040 6 5.4-1.0
2019-Jan-21 23:30 050 6 5.4-1.0
2019-Jan-21 23:00 040 6 5.4-1.0
2019-Jan-21 22:30 040 6 5.4-1.0
2019-Jan-21 22:00 040 6 5.4-1.0
2019-Jan-21 21:30 050 6 5.4-1.0
2019-Jan-21 21:00 030 7 5.4-1.0
2019-Jan-21 20:30 030 8 5.4-1.0
2019-Jan-21 20:00 020 7 5.4-1.0
2019-Jan-21 19:30 030 9 5.4-1.0
2019-Jan-21 19:00 020 8 5.4-1.0
2019-Jan-21 18:30 010 9 5.4-1.0
2019-Jan-21 18:00 020 8 5.4-1.0
2019-Jan-21 17:30 360 8 5.4-1.0
2019-Jan-21 17:00 360 8 5.4-1.0
2019-Jan-21 16:30 360 7 5.4-1.0
2019-Jan-21 16:00 330 6 5.4-0.0
2019-Jan-21 15:30 330 6 5.4-0.0
2019-Jan-21 15:00 330 6 5.4-0.0
2019-Jan-21 14:30 340 6 5.4 1.0
2019-Jan-21 14:00 330 7 5.4 1.0
2019-Jan-21 13:30 340 8 5.4 2.0
2019-Jan-21 13:00 330 8 5.4 2.0
2019-Jan-21 12:30 330 9 5.4 2.0
2019-Jan-21 12:00 330 8 5.4 3.0
2019-Jan-21 11:30 330 9 5.4 3.0
2019-Jan-21 11:00 330 9 5.4 3.0
2019-Jan-21 10:30 320 11 5.4 2.0
2019-Jan-21 10:00 320 9 5.4 1.0
2019-Jan-21 09:30 310 13 5.4 1.0
2019-Jan-21 09:00 310 14 5.4 1.0
2019-Jan-21 08:30 310 14 5.4 1.0
2019-Jan-21 08:00 320 13 5.4 2.0
2019-Jan-21 07:30 310 13 5.4-0.0
2019-Jan-21 07:00 310 12 2.7-0.0 Mist.
2019-Jan-21 06:30 300 11 1.6 1.0 Mist.
2019-Jan-21 06:00 290 18 0.4-0.0 Fog.
2019-Jan-21 05:30 280 17 0.8-0.0 Mist.
2019-Jan-21 05:00 280 20 0.5-0.0 Mist.
2019-Jan-21 04:30 270 15 0.4-0.0 Fog.
2019-Jan-21 04:00 270 15 0.3-0.0 Fog.
2019-Jan-21 03:30 270 20 0.3-0.0 Fog.
2019-Jan-21 03:00 270 20 0.2-0.0 Fog.
2019-Jan-21 02:30 280 25 0.2-0.0 Fog.
2019-Jan-21 02:00 280 21 2.1 1.0 Mist.
2019-Jan-21 01:30 270 18 1.6 2.0 Mist.
2019-Jan-21 01:00 260 13 1.6 2.0 Mist.
2019-Jan-21 00:30 270 18 1.6 2.0 Mist.
2019-Jan-21 00:00 280 19 1.1 2.0 Mist.